Weather Roundup
Issued by NWS Springfield, MO

Home | Current Version | Previous Version | Text Only | Print | Product List | Glossary On
Versions: 1 2 3 4 5 6 7 8 9 10 11 12 13 14 15 16 17 18 19 20 21 22 23 24 25 26 27 28 29 30 31 32 33 34 35 36 37 38 39 40 41 42 43 44 45 46 47 48 49 50
000
NZUS99 KSGF 300057
HRRSGF

HOURLY WEATHER
NATIONAL WEATHER SERVICE SPRINGFIELD MO
800 PM CDT WED MAR 29 2017

......SGF CWA......

CITY           SKY/WX    TMP DP  RH WIND       PRES   REMARKS
SPRINGFIELD    PTCLDY    64  58  80 S7        29.67F
JOPLIN         PTCLDY    65  58  78 W8        29.65R
WEST PLAINS    CLOUDY    71  60  68 SE15G22   29.73S
ROLLA          TSTM      63  61  93 SW20      29.73R FOG
BRANSON        MOCLDY    68  59  73 S8G20     29.71S THUNDER

......SURROUNDING SGF CWA......

CITY           SKY/WX    TMP DP  RH WIND       PRES   REMARKS
CHANUTE        LGT RAIN  60  54  80 S9        29.63S
PARSONS        CLOUDY    60  53  77 S9        29.65S
COFFEYVILLE    CLOUDY    61  51  70 SW16G22   29.65R
EMPORIA        PTCLDY    58  53  84 S12       29.59S
HARRISON AR    LGT RAIN  65  61  87 S9        29.72S

......KANSAS AND MISSOURI......

CITY           SKY/WX    TMP DP  RH WIND       PRES   REMARKS
KANSAS CTY INT TSTM      54  53  97 NE12      29.66S
SEDALIA        MOCLDY    60  57  89 E7        29.67F
ST JOSEPH      MOCLDY    53  52  96 E7        29.67S
ST LOUIS       CLOUDY    66  54  65 E15       29.80F
WICHITA        LGT RAIN  50  49  96 NW15      29.58R
TOPEKA         TSTM      57  56  96 NE8       29.62R
OLATHE         MOCLDY    57  57 100 NE12      29.64F

......TENNESSEE......

CITY           SKY/WX    TMP DP  RH WIND       PRES   REMARKS
MEMPHIS        NOT AVBL
NASHVILLE      MOCLDY    75  58  55 SE7       29.88F

......ARKANSAS.......

CITY           SKY/WX    TMP DP  RH WIND       PRES   REMARKS
FAYETTEVILLE   CLEAR     66  58  75 S6        29.68S
FT SMITH       MOCLDY    73  56  54 S8        29.68S
LITTLE ROCK    CLOUDY    74  61  63 S9        29.74S

......OKLAHOMA.......

CITY           SKY/WX    TMP DP  RH WIND       PRES   REMARKS
TULSA          MOCLDY    61  48  62 W18       29.69R
PONCA CITY     LGT RAIN  50  46  86 W14G28    29.68R FOG
MCALESTER      PTCLDY    66  52  60 W7        29.73R
OKLAHOMA CITY  MOCLDY    50  41  71 NW16      29.79R

......IOWA............

CITY           SKY/WX    TMP DP  RH WIND       PRES   REMARKS
DES MOINES     NOT AVBL
QUAD CITIES    LGT RAIN  45  39  79 E20       29.98S

......ILLINOIS........

CITY           SKY/WX    TMP DP  RH WIND       PRES   REMARKS
QUINCY         CLOUDY    53  49  86 E17G24    29.81F
CHICAGO        LGT RAIN  44  37  76 NE15      30.07F



USA.gov is the U.S. government's official web portal to all federal, state and local government web resources and services.